VA3XLC Weather Reports


Display with metric or nautical units.
time (UTC)temp
F
wind
direction
speed
MPH
gust
MPH
rain 1hr
in
rain 24hr
in
rain mn
in
humidity
%
barometer
mb
20260503200426 57 319 12.0 19.0 0.00 0.00 0.00 43 976.6
20260503195405 57 290 5.0 7.0 0.00 0.00 0.00 38 976.4
20260503194904 57 273 8.0 11.0 0.00 0.00 0.00 40 976.6
20260503193843 57 289 8.0 13.0 0.00 0.00 0.00 37 976.5
20260503193343 57 318 9.0 14.0 0.00 0.00 0.00 38 976.6
20260503192842 57 325 8.0 16.0 0.00 0.00 0.00 40 976.6
20260503191821 57 286 4.0 7.0 0.00 0.00 0.00 41 976.8
20260503191321 57 284 8.0 12.0 0.00 0.00 0.00 40 976.9
20260503190821 56 284 10.0 17.0 0.00 0.00 0.00 42 977.0
20260503185759 56 269 10.0 15.0 0.00 0.00 0.00 44 977.2
20260503185259 56 289 7.0 13.0 0.00 0.00 0.00 44 977.2
20260503184237 57 320 8.0 10.0 0.00 0.00 0.00 41 977.3
20260503183736 57 278 7.0 12.0 0.00 0.00 0.00 40 977.1
20260503183236 57 302 8.0 11.0 0.00 0.00 0.00 39 977.1
20260503182736 57 312 9.0 11.0 0.00 0.00 0.00 38 977.1
20260503182236 57 303 7.0 11.0 0.00 0.00 0.00 38 977.2
20260503181736 57 340 10.0 13.0 0.00 0.00 0.00 38 977.2
20260503181235 57 266 5.0 10.0 0.00 0.00 0.00 38 977.2
20260503180734 58 307 9.0 16.0 0.00 0.00 0.00 38 977.2
20260503180234 58 289 5.0 10.0 0.00 0.00 0.00 35 977.1
20260503175734 59 278 10.0 19.0 0.00 0.00 0.00 34 977.0
20260503174712 59 283 9.0 12.0 0.00 0.00 0.00 33 977.1
20260503173651 58 290 5.0 9.0 0.00 0.00 0.00 36 977.1
20260503173151 58 282 7.0 15.0 0.00 0.00 0.00 35 977.1
20260503172651 59 270 7.0 14.0 0.00 0.00 0.00 35 977.2
20260503171628 58 255 6.0 10.0 0.00 0.00 0.00 36 977.4
20260503150810 51 259 8.0 11.0 0.00 0.00 0.00 41 979.1
20260503150309 51 269 6.0 9.0 0.00 0.00 0.00 41 979.1
20260503140224 48 259 9.0 13.0 0.00 0.00 0.00 42 979.8
20260503131218 45 293 6.0 10.0 0.00 0.00 0.00 44 980.3
20260503130718 45 261 5.0 8.0 0.00 0.00 0.00 43 980.3
20260503120112 39 266 7.0 10.0 0.00 0.00 0.00 62 980.9
20260503110608 37 276 4.0 6.0 0.00 0.00 0.00 68 980.8
20260503110107 37 281 4.0 6.0 0.00 0.00 0.00 69 980.8
20260503090458 37 262 4.0 7.0 0.00 0.00 0.00 69 980.9
20260503081435 35 253 3.0 4.0 0.00 0.00 0.00 72 980.9
20260503080934 35 240 3.0 4.0 0.00 0.00 0.00 72 980.9
20260503080434 35 269 4.0 5.0 0.00 0.00 0.00 73 980.9
20260503072351 36 239 3.0 6.0 0.00 0.00 0.00 72 980.9
20260503071850 35 251 5.0 8.0 0.00 0.00 0.00 72 980.9
20260503071350 35 227 3.0 6.0 0.00 0.00 0.00 74 980.9
20260503070850 35 233 2.0 4.0 0.00 0.00 0.00 74 980.9
20260503070350 34 236 2.0 2.0 0.00 0.00 0.00 74 981.0
20260503054825 34 194 2.0 3.0 0.00 0.00 0.00 72 981.7
20260503054325 35 195 2.0 2.0 0.00 0.00 0.00 72 981.7
20260503052221 35 223 2.0 2.0 0.00 0.00 0.00 68 981.9
20260503051721 35 243 2.0 3.0 0.00 0.00 0.00 68 981.9
20260503051221 35 224 2.0 2.0 0.00 0.00 0.00 68 981.9
20260503050159 35 219 2.0 3.0 0.00 0.00 0.00 67 982.0
20260503045659 35 238 2.0 4.0 0.00 0.00 0.00 66 982.1
20260503045159 34 245 3.0 4.0 0.00 0.00 0.00 66 982.1
20260503044658 34 225 1.0 2.0 0.00 0.00 0.00 66 982.1
20260503044158 34 228 2.0 2.0 0.00 0.00 0.00 66 982.1
20260503043658 34 198 2.0 2.0 0.00 0.00 0.00 66 982.2
20260503042115 35 225 2.0 2.0 0.00 0.00 0.00 64 982.2
20260503041615 35 240 2.0 3.0 0.00 0.00 0.00 63 982.2
20260503041115 35 230 2.0 2.0 0.00 0.00 0.00 64 982.3
20260503040615 35 220 2.0 2.0 0.00 0.00 0.00 62 982.3
20260503035553 34 248 3.0 4.0 0.00 0.00 0.00 63 982.3
20260503035053 34 243 2.0 3.0 0.00 0.00 0.00 65 982.3
20260503034553 34 204 2.0 2.0 0.00 0.00 0.00 64 982.3
20260503033531 34 189 2.0 2.0 0.00 0.00 0.00 64 982.3
20260503033031 34 197 2.0 2.0 0.00 0.00 0.00 64 982.4
20260503032010 33 213 1.0 2.0 0.00 0.00 0.00 66 982.5
20260503031510 33 215 2.0 2.0 0.00 0.00 0.00 66 982.5
20260503031009 33 200 2.0 2.0 0.00 0.00 0.00 65 982.5
20260503030509 33 201 2.0 2.0 0.00 0.00 0.00 66 982.5
20260503030009 33 209 1.0 2.0 0.00 0.00 0.00 66 982.5
20260503024947 34 206 2.0 2.0 0.00 0.00 0.00 64 982.6
20260503024447 34 208 2.0 2.0 0.00 0.00 0.00 64 982.6
20260503023947 34 198 2.0 2.0 0.00 0.00 0.00 64 982.7
20260503023447 34 213 1.0 2.0 0.00 0.00 0.00 63 982.7
20260503022946 34 223 1.0 2.0 0.00 0.00 0.00 61 982.8
20260503022446 34 209 2.0 2.0 0.00 0.00 0.00 62 982.8
20260503021946 34 0 0.0 0.0 0.00 0.00 0.00 62 982.8
20260503021446 34 194 2.0 2.0 0.00 0.00 0.00 63 982.8
20260503020946 34 0 0.0 0.0 0.00 0.00 0.00 61 982.8
20260503020445 34 0 0.0 0.0 0.00 0.00 0.00 60 982.7
20260503015945 34 250 1.0 2.0 0.00 0.00 0.00 60 982.7
20260503015445 35 0 0.0 0.0 0.00 0.00 0.00 57 982.7
20260503014944 35 232 2.0 2.0 0.00 0.00 0.00 57 982.7
20260503014444 35 236 2.0 2.0 0.00 0.00 0.00 56 982.7
20260503013944 35 220 0.0 1.0 0.00 0.00 0.00 55 982.6
20260503013443 35 0 0.0 0.0 0.00 0.00 0.00 54 982.6
20260503012942 36 235 1.0 2.0 0.00 0.00 0.00 53 982.7
20260503012442 36 0 0.0 0.0 0.00 0.00 0.00 52 982.6
20260503011942 37 0 0.0 0.0 0.00 0.00 0.00 50 982.6
20260503011442 37 0 0.0 0.0 0.00 0.00 0.00 48 982.6
20260503010942 38 0 0.0 0.0 0.00 0.00 0.00 47 982.6
20260503010441 38 219 2.0 2.0 0.00 0.00 0.00 47 982.6
20260503005940 39 229 1.0 2.0 0.00 0.00 0.00 44 982.5
20260503004918 40 0 0.0 0.0 0.00 0.00 0.00 42 982.4
20260503002814 42 341 3.0 5.0 0.00 0.00 0.00 36 982.3
20260503002313 42 342 3.0 7.0 0.00 0.00 0.00 35 982.2
20260503001812 43 342 4.0 6.0 0.00 0.00 0.00 34 982.2
20260503001312 43 346 6.0 8.0 0.00 0.00 0.00 33 982.2
20260503000812 43 338 3.0 4.0 0.00 0.00 0.00 32 982.2
20260503000311 44 333 4.0 6.0 0.00 0.00 0.00 32 982.2
20260502235811 44 345 4.0 6.0 0.00 0.00 0.00 31 982.2
20260502234749 44 336 2.0 3.0 0.00 0.00 0.00 30 982.2
20260502234248 44 338 4.0 5.0 0.00 0.00 0.00 30 982.2
20260502233748 44 322 4.0 8.0 0.00 0.00 0.00 28 982.1
20260502233248 44 350 5.0 7.0 0.00 0.00 0.00 27 982.1
20260502232748 45 339 5.0 9.0 0.00 0.00 0.00 27 982.1
20260502232248 45 349 7.0 10.0 0.00 0.00 0.00 25 982.1
20260502231748 45 5 4.0 7.0 0.00 0.00 0.00 27 982.1
20260502231247 45 345 6.0 9.0 0.00 0.00 0.00 25 982.1
20260502230746 45 326 7.0 10.0 0.00 0.00 0.00 26 982.1
20260502230246 45 346 5.0 8.0 0.00 0.00 0.00 26 982.1
20260502225746 45 10 5.0 9.0 0.00 0.00 0.00 26 982.2
20260502225245 45 341 4.0 8.0 0.00 0.00 0.00 26 982.2
20260502224745 45 342 9.0 12.0 0.00 0.00 0.00 25 982.2
20260502223724 45 343 5.0 7.0 0.00 0.00 0.00 26 982.2
20260502222702 45 345 5.0 8.0 0.00 0.00 0.00 27 982.2
20260502222202 45 2 5.0 8.0 0.00 0.00 0.00 27 982.2
20260502221140 45 357 5.0 8.0 0.00 0.00 0.00 28 982.3
20260502220640 45 357 4.0 5.0 0.00 0.00 0.00 28 982.2
20260502220140 45 3 4.0 9.0 0.00 0.00 0.00 29 982.2
20260502215640 45 342 4.0 10.0 0.00 0.00 0.00 29 982.2
20260502215140 45 351 8.0 10.0 0.00 0.00 0.00 28 982.2
20260502214639 45 7 5.0 8.0 0.00 0.00 0.00 30 982.2
20260502214139 45 342 9.0 12.0 0.00 0.00 0.00 30 982.2
20260502213639 45 8 4.0 7.0 0.00 0.00 0.00 30 982.2
20260502213139 45 8 7.0 9.0 0.00 0.00 0.00 32 982.2
20260502212638 45 19 4.0 7.0 0.00 0.00 0.00 31 982.2
20260502212138 44 310 4.0 6.0 0.00 0.00 0.00 32 982.2
20260502211638 44 344 6.0 8.0 0.00 0.00 0.00 35 982.2
20260502211138 44 0 6.0 9.0 0.00 0.00 0.00 34 982.2
20260502210637 44 351 6.0 11.0 0.00 0.00 0.00 35 982.2
20260502210137 44 0 6.0 9.0 0.00 0.00 0.00 36 982.1
20260502204555 44 331 8.0 10.0 0.00 0.00 0.00 34 982.2
20260502204054 44 345 6.0 10.0 0.00 0.00 0.00 34 982.3
20260502203554 44 19 5.0 9.0 0.00 0.00 0.00 35 982.3
20260502203054 44 354 6.0 11.0 0.00 0.00 0.00 35 982.3
20260502202554 44 9 5.0 9.0 0.00 0.00 0.00 35 982.4
20260502202054 43 329 4.0 6.0 0.00 0.00 0.00 37 982.4
20260502201553 44 343 6.0 10.0 0.00 0.00 0.00 36 982.5
20260502201052 43 346 8.0 10.0 0.00 0.00 0.00 38 982.5